SVA589 OMDB-OEJN

Flight info

Callsign SVA589
Flight time 2h 31m
Altitude 36000
Route KUTLI L519 ATUDO M318 GOLGU M550 RIBOT DCT MIGMA DCT ITRUX Y511 ASMIS T218 IMGUT M309 VEMEM
Aircraft A320/M-SDE3FGHIRWY/LB1

Departure

Time 2026-05-06 16:38
Airport Dubai International Airport (OMDB)

Arrival

Time 2026-05-06 19:10
Airport King Abdulaziz International Airport (OEJN)
Time Latitude Longitude Altitude Speed Heading
2026-05-06 16:11 25.25837 55.34559 21 ft 0 kts 211°
2026-05-06 16:20 25.25842 55.34562 21 ft 2 kts 211°
2026-05-06 16:20 25.25860 55.34574 22 ft 3 kts 211°
2026-05-06 16:20 25.25877 55.34586 23 ft 3 kts 211°
2026-05-06 16:20 25.25894 55.34597 24 ft 3 kts 211°
2026-05-06 16:21 25.25911 55.34609 23 ft 3 kts 205°
2026-05-06 16:21 25.25928 55.34614 23 ft 3 kts 166°
2026-05-06 16:21 25.25943 55.34605 24 ft 2 kts 125°
2026-05-06 16:21 25.25949 55.34595 22 ft 2 kts 121°
2026-05-06 16:22 25.25954 55.34585 21 ft 0 kts 121°
2026-05-06 16:27 25.25940 55.34612 22 ft 9 kts 121°
2026-05-06 16:27 25.25917 55.34652 21 ft 9 kts 121°
2026-05-06 16:27 25.25871 55.34736 21 ft 16 kts 121°
2026-05-06 16:28 25.25808 55.34850 22 ft 18 kts 121°
2026-05-06 16:28 25.25762 55.34933 21 ft 14 kts 122°
2026-05-06 16:28 25.25804 55.35031 21 ft 19 kts 31°
2026-05-06 16:28 25.25886 55.35085 22 ft 14 kts 31°
2026-05-06 16:29 25.25977 55.35146 21 ft 16 kts 31°
2026-05-06 16:29 25.26060 55.35202 22 ft 10 kts 31°
2026-05-06 16:29 25.26119 55.35246 22 ft 11 kts 44°
2026-05-06 16:29 25.26120 55.35325 22 ft 13 kts 118°
2026-05-06 16:30 25.26065 55.35422 22 ft 17 kts 122°
2026-05-06 16:30 25.26019 55.35501 22 ft 20 kts 122°
2026-05-06 16:30 25.25909 55.35697 24 ft 25 kts 121°
2026-05-06 16:30 25.25841 55.35821 22 ft 15 kts 121°
2026-05-06 16:31 25.25785 55.35922 22 ft 13 kts 121°
2026-05-06 16:31 25.25729 55.36022 22 ft 18 kts 121°
2026-05-06 16:31 25.25688 55.36093 22 ft 12 kts 123°
2026-05-06 16:31 25.25634 55.36187 24 ft 16 kts 122°
2026-05-06 16:32 25.25569 55.36302 22 ft 19 kts 122°
2026-05-06 16:32 25.25500 55.36424 22 ft 13 kts 122°
2026-05-06 16:32 25.25446 55.36520 22 ft 16 kts 122°
2026-05-06 16:32 25.25381 55.36635 21 ft 19 kts 122°
2026-05-06 16:33 25.25316 55.36752 22 ft 17 kts 122°
2026-05-06 16:33 25.25251 55.36869 22 ft 19 kts 121°
2026-05-06 16:33 25.25203 55.36954 22 ft 7 kts 122°
2026-05-06 16:34 25.25131 55.37082 24 ft 13 kts 122°
2026-05-06 16:34 25.25080 55.37173 23 ft 15 kts 122°
2026-05-06 16:34 25.25019 55.37281 25 ft 18 kts 122°
2026-05-06 16:34 25.24951 55.37402 24 ft 20 kts 122°
2026-05-06 16:35 25.24892 55.37507 26 ft 15 kts 121°
2026-05-06 16:35 25.24832 55.37616 23 ft 18 kts 121°
2026-05-06 16:35 25.24769 55.37729 24 ft 12 kts 122°
2026-05-06 16:35 25.24720 55.37814 22 ft 14 kts 122°
2026-05-06 16:36 25.24673 55.37895 22 ft 10 kts 120°
2026-05-06 16:36 25.24680 55.37964 24 ft 7 kts 44°
2026-05-06 16:36 25.24727 55.37998 24 ft 9 kts 33°
2026-05-06 16:36 25.24793 55.38033 25 ft 12 kts 351°
2026-05-06 16:37 25.24823 55.37995 25 ft 0 kts 303°
2026-05-06 16:37 25.24823 55.37994 25 ft 1 kts 303°
2026-05-06 16:37 25.24918 55.37828 27 ft 62 kts 302°
2026-05-06 16:37 25.25261 55.37206 27 ft 125 kts 301°
2026-05-06 16:38 25.25808 55.36228 27 ft 173 kts 302°
2026-05-06 16:38 25.26472 55.35010 359 ft 191 kts 303°
2026-05-06 16:38 25.27162 55.33764 1007 ft 189 kts 302°
2026-05-06 16:38 25.27849 55.32527 1694 ft 188 kts 302°
2026-05-06 16:39 25.28540 55.31283 2207 ft 191 kts 301°
2026-05-06 16:39 25.29109 55.29952 2639 ft 194 kts 281°
2026-05-06 16:39 25.29100 55.28460 3018 ft 200 kts 254°
2026-05-06 16:39 25.28539 55.27036 3390 ft 205 kts 244°
2026-05-06 16:40 25.27930 55.25627 3879 ft 206 kts 244°
2026-05-06 16:40 25.27316 55.24195 4350 ft 207 kts 243°
2026-05-06 16:40 25.26703 55.22755 4815 ft 208 kts 243°
2026-05-06 16:40 25.26086 55.21302 5272 ft 210 kts 243°
2026-05-06 16:41 25.25440 55.19784 5472 ft 228 kts 243°
2026-05-06 16:41 25.24734 55.18127 5719 ft 244 kts 243°
2026-05-06 16:41 25.24005 55.16423 6326 ft 247 kts 241°
2026-05-06 16:41 25.23168 55.14692 6714 ft 260 kts 238°
2026-05-06 16:42 25.22255 55.12941 7301 ft 266 kts 238°
2026-05-06 16:42 25.21308 55.11162 7907 ft 271 kts 238°
2026-05-06 16:42 25.20344 55.09340 8515 ft 277 kts 240°
2026-05-06 16:42 25.19551 55.07374 9129 ft 283 kts 246°
2026-05-06 16:43 25.18787 55.05349 9757 ft 288 kts 246°
2026-05-06 16:43 25.18017 55.03290 10331 ft 293 kts 247°
2026-05-06 16:43 25.17238 55.01195 10916 ft 297 kts 247°
2026-05-06 16:43 25.16443 54.99078 11507 ft 301 kts 244°
2026-05-06 16:44 25.15366 54.97088 12113 ft 304 kts 232°
2026-05-06 16:44 25.13919 54.95387 12733 ft 306 kts 219°
2026-05-06 16:44 25.12167 54.94051 13364 ft 307 kts 207°
2026-05-06 16:44 25.10218 54.93160 13952 ft 308 kts 195°
2026-05-06 16:45 25.08116 54.92733 14525 ft 308 kts 182°
2026-05-06 16:45 25.05974 54.92710 15102 ft 308 kts 179°
2026-05-06 16:45 25.03824 54.92722 15693 ft 309 kts 179°
2026-05-06 16:45 25.01679 54.92746 16295 ft 308 kts 178°
2026-05-06 16:46 24.99534 54.92850 16825 ft 312 kts 176°
2026-05-06 16:46 24.97340 54.93005 17205 ft 320 kts 175°
2026-05-06 16:46 24.95087 54.93181 17588 ft 328 kts 175°
2026-05-06 16:46 24.92783 54.93361 17973 ft 335 kts 176°
2026-05-06 16:47 24.90440 54.93533 18325 ft 339 kts 178°
2026-05-06 16:47 24.88080 54.93435 18662 ft 341 kts 187°
2026-05-06 16:47 24.85744 54.92937 18999 ft 343 kts 196°
2026-05-06 16:47 24.83495 54.92043 19349 ft 345 kts 205°
2026-05-06 16:48 24.81368 54.90818 19695 ft 346 kts 209°
2026-05-06 16:48 24.79251 54.89542 20043 ft 348 kts 210°
2026-05-06 16:48 24.77121 54.88269 20405 ft 349 kts 209°
2026-05-06 16:48 24.74977 54.86992 20767 ft 351 kts 211°
2026-05-06 16:49 24.72812 54.85699 21089 ft 359 kts 210°
2026-05-06 16:49 24.70591 54.84374 21335 ft 368 kts 210°
2026-05-06 16:49 24.68313 54.83014 21582 ft 376 kts 210°
2026-05-06 16:49 24.66002 54.81586 21837 ft 385 kts 212°
2026-05-06 16:50 24.63690 54.80108 22085 ft 393 kts 212°
2026-05-06 16:50 24.61313 54.78565 22341 ft 401 kts 212°
2026-05-06 16:50 24.58886 54.76985 22595 ft 409 kts 212°
2026-05-06 16:50 24.57246 54.75923 22763 ft 414 kts 212°
2026-05-06 16:51 24.53887 54.73761 23108 ft 422 kts 212°
2026-05-06 16:51 24.51331 54.72124 23365 ft 428 kts 212°
2026-05-06 16:51 24.48744 54.70468 23584 ft 433 kts 212°
2026-05-06 16:51 24.46114 54.68782 23805 ft 437 kts 212°
2026-05-06 16:52 24.43478 54.67088 24022 ft 441 kts 212°
2026-05-06 16:52 24.40817 54.65380 24244 ft 444 kts 212°
2026-05-06 16:52 24.38170 54.63690 24464 ft 447 kts 212°
2026-05-06 16:52 24.35468 54.61968 24690 ft 450 kts 212°
2026-05-06 16:53 24.32756 54.60238 24922 ft 452 kts 212°
2026-05-06 16:53 24.30032 54.58500 25150 ft 454 kts 212°
2026-05-06 16:53 24.27318 54.56727 25379 ft 455 kts 216°
2026-05-06 16:53 24.24891 54.54526 25606 ft 453 kts 228°
2026-05-06 16:54 24.22920 54.51846 25837 ft 452 kts 238°
2026-05-06 16:54 24.21350 54.48861 26075 ft 452 kts 243°
2026-05-06 16:54 24.19853 54.45867 26309 ft 453 kts 242°
2026-05-06 16:54 24.18293 54.42828 26556 ft 453 kts 242°
2026-05-06 16:55 24.16732 54.39831 26802 ft 454 kts 241°
2026-05-06 16:55 24.15163 54.36827 27030 ft 454 kts 241°
2026-05-06 16:55 24.13621 54.33862 27285 ft 454 kts 242°
2026-05-06 16:55 24.12063 54.30857 27535 ft 454 kts 242°
2026-05-06 16:56 24.10511 54.27850 27784 ft 454 kts 242°
2026-05-06 16:56 24.08962 54.24841 28036 ft 453 kts 242°
2026-05-06 16:56 24.07415 54.21840 28293 ft 453 kts 242°
2026-05-06 16:56 24.05871 54.18839 28561 ft 452 kts 242°
2026-05-06 16:57 24.04331 54.15847 28809 ft 451 kts 242°
2026-05-06 16:57 24.02789 54.12860 29068 ft 450 kts 242°
2026-05-06 16:57 24.01248 54.09884 29335 ft 449 kts 242°
2026-05-06 16:57 23.99707 54.06913 29602 ft 448 kts 242°
2026-05-06 16:58 23.98165 54.03959 29868 ft 447 kts 242°
2026-05-06 16:58 23.96615 54.01019 30096 ft 446 kts 241°
2026-05-06 16:58 23.95061 53.98092 30323 ft 445 kts 241°
2026-05-06 16:58 23.93506 53.95169 30552 ft 443 kts 241°
2026-05-06 16:59 23.91961 53.92258 30782 ft 442 kts 241°
2026-05-06 16:59 23.90438 53.89382 31014 ft 441 kts 242°
2026-05-06 16:59 23.88901 53.86480 31248 ft 440 kts 242°
2026-05-06 16:59 23.87369 53.83591 31487 ft 439 kts 242°
2026-05-06 17:00 23.85836 53.80703 31726 ft 438 kts 241°
2026-05-06 17:00 23.84303 53.77819 31967 ft 437 kts 242°
2026-05-06 17:00 23.82779 53.74947 32203 ft 436 kts 242°
2026-05-06 17:00 23.81260 53.72082 32458 ft 435 kts 241°
2026-05-06 17:01 23.79741 53.69225 32707 ft 434 kts 241°
2026-05-06 17:01 23.78244 53.66413 32954 ft 433 kts 241°
2026-05-06 17:01 23.76733 53.63574 33206 ft 432 kts 242°
2026-05-06 17:01 23.75225 53.60736 33465 ft 431 kts 242°
2026-05-06 17:02 23.73719 53.57900 33717 ft 430 kts 241°
2026-05-06 17:02 23.72218 53.55079 33943 ft 430 kts 241°
2026-05-06 17:02 23.70715 53.52265 34175 ft 429 kts 241°
2026-05-06 17:02 23.69217 53.49460 34403 ft 428 kts 241°
2026-05-06 17:03 23.67728 53.46657 34629 ft 426 kts 241°
2026-05-06 17:03 23.66247 53.43864 34863 ft 425 kts 242°
2026-05-06 17:03 23.64771 53.41073 35092 ft 424 kts 242°
2026-05-06 17:03 23.63303 53.38292 35326 ft 422 kts 242°
2026-05-06 17:04 23.61840 53.35525 35558 ft 420 kts 241°
2026-05-06 17:04 23.60873 53.33699 35705 ft 420 kts 241°
2026-05-06 17:04 23.59406 53.30938 35790 ft 422 kts 241°
2026-05-06 17:05 23.56442 53.25361 35808 ft 429 kts 241°
2026-05-06 17:05 23.53419 53.19691 35805 ft 435 kts 241°
2026-05-06 17:06 23.50365 53.13968 35807 ft 439 kts 241°
2026-05-06 17:06 23.47285 53.08201 35808 ft 442 kts 241°
2026-05-06 17:07 23.44190 53.02412 35806 ft 442 kts 241°
2026-05-06 17:07 23.41094 52.96619 35809 ft 442 kts 241°
2026-05-06 17:08 23.38036 52.90802 35811 ft 443 kts 242°
2026-05-06 17:08 23.35061 52.84935 35815 ft 443 kts 242°
2026-05-06 17:09 23.32087 52.79082 35815 ft 443 kts 242°
2026-05-06 17:09 23.29080 52.73223 35816 ft 443 kts 242°
2026-05-06 17:10 23.26079 52.67407 35819 ft 443 kts 242°
2026-05-06 17:10 23.23064 52.61562 35819 ft 443 kts 242°
2026-05-06 17:11 23.20045 52.55717 35816 ft 443 kts 242°
2026-05-06 17:11 23.17392 52.49742 35812 ft 441 kts 251°
2026-05-06 17:12 23.15406 52.43422 35809 ft 442 kts 251°
2026-05-06 17:12 23.13398 52.37110 35810 ft 442 kts 251°
2026-05-06 17:13 23.11387 52.30798 35814 ft 442 kts 251°
2026-05-06 17:13 23.09379 52.24479 35817 ft 442 kts 251°
2026-05-06 17:14 23.07385 52.18202 35817 ft 442 kts 251°
2026-05-06 17:14 23.05374 52.11887 35816 ft 442 kts 251°
2026-05-06 17:15 23.03356 52.05577 35816 ft 442 kts 251°
2026-05-06 17:15 23.01342 51.99269 35816 ft 442 kts 251°
2026-05-06 17:16 22.99315 51.92965 35813 ft 442 kts 251°
2026-05-06 17:16 22.97293 51.86656 35813 ft 442 kts 251°
2026-05-06 17:17 22.95278 51.80351 35815 ft 442 kts 250°
2026-05-06 17:17 22.93251 51.74047 35816 ft 442 kts 250°
2026-05-06 17:18 22.91223 51.67748 35812 ft 442 kts 250°
2026-05-06 17:18 22.89190 51.61453 35818 ft 442 kts 250°
2026-05-06 17:19 22.87163 51.55194 35815 ft 442 kts 250°
2026-05-06 17:19 22.85129 51.48894 35814 ft 442 kts 252°
2026-05-06 17:20 22.84274 51.42306 35817 ft 444 kts 268°
2026-05-06 17:20 22.84240 51.35607 35815 ft 444 kts 268°
2026-05-06 17:21 22.84201 51.28899 35806 ft 445 kts 268°
2026-05-06 17:21 22.84158 51.22194 35807 ft 445 kts 268°
2026-05-06 17:22 22.84107 51.15480 35811 ft 445 kts 268°
2026-05-06 17:22 22.84051 51.08813 35812 ft 445 kts 268°
2026-05-06 17:23 22.83997 51.02085 35815 ft 445 kts 268°
2026-05-06 17:23 22.83945 50.95370 35814 ft 445 kts 268°
2026-05-06 17:24 22.83883 50.88656 35817 ft 445 kts 268°
2026-05-06 17:24 22.83815 50.81981 35819 ft 445 kts 268°
2026-05-06 17:25 22.83756 50.75265 35814 ft 445 kts 268°
2026-05-06 17:25 22.83693 50.68550 35817 ft 445 kts 268°
2026-05-06 17:26 22.83620 50.61838 35819 ft 446 kts 267°
2026-05-06 17:26 22.83543 50.55117 35817 ft 446 kts 267°
2026-05-06 17:27 22.83468 50.48391 35817 ft 446 kts 267°
2026-05-06 17:27 22.83391 50.41666 35819 ft 446 kts 267°
2026-05-06 17:28 22.83313 50.34937 35826 ft 446 kts 267°
2026-05-06 17:28 22.83229 50.28212 35823 ft 446 kts 267°
2026-05-06 17:29 22.83142 50.21530 35818 ft 446 kts 267°
2026-05-06 17:29 22.83044 50.14800 35817 ft 446 kts 267°
2026-05-06 17:30 22.82955 50.08082 35816 ft 446 kts 267°
2026-05-06 17:30 22.82857 50.01363 35816 ft 446 kts 267°
2026-05-06 17:31 22.82754 49.94685 35818 ft 446 kts 267°
2026-05-06 17:31 22.82657 49.87962 35816 ft 446 kts 267°
2026-05-06 17:32 22.82559 49.81246 35817 ft 446 kts 267°
2026-05-06 17:32 22.82452 49.74523 35812 ft 446 kts 267°
2026-05-06 17:33 22.82339 49.67803 35811 ft 446 kts 267°
2026-05-06 17:33 22.82213 49.61079 35808 ft 446 kts 266°
2026-05-06 17:34 22.82094 49.54401 35809 ft 446 kts 267°
2026-05-06 17:34 22.81980 49.47672 35823 ft 446 kts 266°
2026-05-06 17:35 22.81858 49.40953 35814 ft 445 kts 266°
2026-05-06 17:35 22.81739 49.34242 35814 ft 445 kts 266°
2026-05-06 17:36 22.81543 49.24183 35815 ft 445 kts 266°
2026-05-06 17:36 22.81417 49.17484 35815 ft 445 kts 266°
2026-05-06 17:37 22.81283 49.10786 35816 ft 445 kts 266°
2026-05-06 17:37 22.81149 49.04085 35812 ft 445 kts 266°
2026-05-06 17:38 22.81015 48.97379 35811 ft 445 kts 266°
2026-05-06 17:38 22.80873 48.90666 35811 ft 445 kts 266°
2026-05-06 17:39 22.80715 48.83964 35815 ft 444 kts 266°
2026-05-06 17:39 22.80560 48.77273 35816 ft 444 kts 266°
2026-05-06 17:40 22.80414 48.70619 35815 ft 444 kts 266°
2026-05-06 17:40 22.80261 48.63924 35818 ft 444 kts 266°
2026-05-06 17:41 22.80108 48.57239 35814 ft 444 kts 266°
2026-05-06 17:41 22.79956 48.50555 35813 ft 444 kts 266°
2026-05-06 17:42 22.79794 48.43870 35811 ft 443 kts 266°
2026-05-06 17:42 22.79631 48.37184 35816 ft 443 kts 266°
2026-05-06 17:43 22.79459 48.30541 35812 ft 443 kts 266°
2026-05-06 17:43 22.79285 48.23866 35812 ft 443 kts 266°
2026-05-06 17:44 22.79113 48.17189 35812 ft 443 kts 266°
2026-05-06 17:44 22.78939 48.10516 35810 ft 443 kts 266°
2026-05-06 17:45 22.78760 48.03846 35808 ft 443 kts 266°
2026-05-06 17:45 22.78581 47.97177 35812 ft 443 kts 266°
2026-05-06 17:46 22.78401 47.90550 35813 ft 443 kts 266°
2026-05-06 17:46 22.78219 47.83878 35815 ft 443 kts 266°
2026-05-06 17:47 22.78030 47.77213 35823 ft 442 kts 266°
2026-05-06 17:47 22.77836 47.70555 35824 ft 442 kts 266°
2026-05-06 17:48 22.77641 47.63895 35826 ft 442 kts 266°
2026-05-06 17:48 22.77446 47.57238 35837 ft 441 kts 266°
2026-05-06 17:49 22.77241 47.50596 35840 ft 441 kts 265°
2026-05-06 17:49 22.77041 47.43983 35845 ft 440 kts 265°
2026-05-06 17:50 22.76840 47.37356 35850 ft 440 kts 265°
2026-05-06 17:50 22.76633 47.30730 35856 ft 440 kts 265°
2026-05-06 17:51 22.76423 47.24115 35858 ft 439 kts 265°
2026-05-06 17:51 22.76252 47.18615 35859 ft 439 kts 266°
2026-05-06 17:52 22.76674 47.11987 35871 ft 441 kts 272°
2026-05-06 17:52 22.77199 47.05363 35889 ft 440 kts 271°
2026-05-06 17:53 22.77718 46.98763 35889 ft 439 kts 271°
2026-05-06 17:53 22.78237 46.92212 35903 ft 438 kts 271°
2026-05-06 17:54 22.78744 46.85629 35892 ft 438 kts 271°
2026-05-06 17:54 22.79254 46.79052 35902 ft 437 kts 271°
2026-05-06 17:55 22.79760 46.72486 35907 ft 437 kts 271°
2026-05-06 17:55 22.80268 46.65925 35904 ft 437 kts 271°
2026-05-06 17:56 22.80775 46.59366 35920 ft 436 kts 271°
2026-05-06 17:56 22.81276 46.52811 35918 ft 436 kts 271°
2026-05-06 17:57 22.81766 46.46294 35937 ft 436 kts 271°
2026-05-06 17:57 22.82254 46.39753 35936 ft 435 kts 271°
2026-05-06 17:58 22.82739 46.33225 35944 ft 434 kts 271°
2026-05-06 17:58 22.83220 46.26691 35936 ft 434 kts 271°
2026-05-06 17:59 22.83696 46.20165 35933 ft 434 kts 271°
2026-05-06 17:59 22.84180 46.13643 35923 ft 434 kts 271°
2026-05-06 18:00 22.84659 46.07111 35921 ft 434 kts 271°
2026-05-06 18:00 22.85131 46.00582 35917 ft 434 kts 271°
2026-05-06 18:01 22.85600 45.94056 35923 ft 434 kts 271°
2026-05-06 18:01 22.86060 45.87564 35932 ft 434 kts 271°
2026-05-06 18:02 22.86521 45.81042 35926 ft 434 kts 271°
2026-05-06 18:02 22.86985 45.74524 35922 ft 433 kts 271°
2026-05-06 18:03 22.87439 45.68004 35924 ft 433 kts 271°
2026-05-06 18:03 22.87892 45.61500 35920 ft 433 kts 271°
2026-05-06 18:04 22.88344 45.54992 35924 ft 432 kts 270°
2026-05-06 18:04 22.88792 45.48490 35924 ft 432 kts 270°
2026-05-06 18:05 22.89247 45.41991 35921 ft 432 kts 270°
2026-05-06 18:05 22.89700 45.35525 35930 ft 432 kts 270°
2026-05-06 18:06 22.90134 45.29037 35926 ft 431 kts 270°
2026-05-06 18:06 22.90563 45.22562 35925 ft 430 kts 270°
2026-05-06 18:07 22.90995 45.16094 35922 ft 430 kts 270°
2026-05-06 18:07 22.91426 45.09629 35920 ft 429 kts 270°
2026-05-06 18:08 22.91857 45.03167 35922 ft 429 kts 270°
2026-05-06 18:08 22.92282 44.96744 35925 ft 429 kts 270°
2026-05-06 18:09 22.92702 44.90280 35916 ft 429 kts 270°
2026-05-06 18:09 22.93119 44.83824 35918 ft 429 kts 270°
2026-05-06 18:10 22.93539 44.77366 35917 ft 429 kts 270°
2026-05-06 18:10 22.93951 44.70908 35914 ft 429 kts 270°
2026-05-06 18:11 22.94086 44.64465 35915 ft 425 kts 264°
2026-05-06 18:11 22.93806 44.58058 35924 ft 425 kts 264°
2026-05-06 18:12 22.93525 44.51652 35923 ft 425 kts 264°
2026-05-06 18:12 22.93242 44.45257 35917 ft 425 kts 264°
2026-05-06 18:13 22.92959 44.38903 35927 ft 424 kts 264°
2026-05-06 18:13 22.92676 44.32521 35927 ft 423 kts 264°
2026-05-06 18:14 22.92389 44.26148 35928 ft 423 kts 264°
2026-05-06 18:14 22.92102 44.19781 35933 ft 422 kts 263°
2026-05-06 18:15 22.91810 44.13422 35931 ft 422 kts 263°
2026-05-06 18:15 22.91512 44.07068 35927 ft 421 kts 263°
2026-05-06 18:16 22.91216 44.00725 35944 ft 421 kts 263°
2026-05-06 18:16 22.90915 43.94389 35946 ft 420 kts 263°
2026-05-06 18:17 22.90616 43.88063 35936 ft 420 kts 263°
2026-05-06 18:17 22.90318 43.81737 35952 ft 420 kts 263°
2026-05-06 18:18 22.90015 43.75415 35957 ft 419 kts 263°
2026-05-06 18:18 22.89711 43.69097 35956 ft 419 kts 263°
2026-05-06 18:19 22.89402 43.62793 35974 ft 418 kts 263°
2026-05-06 18:19 22.89091 43.56504 35989 ft 417 kts 263°
2026-05-06 18:20 22.88775 43.50273 35978 ft 416 kts 263°
2026-05-06 18:20 22.88455 43.43969 35975 ft 416 kts 263°
2026-05-06 18:21 22.88140 43.37753 35978 ft 415 kts 263°
2026-05-06 18:21 22.87818 43.31511 35967 ft 415 kts 263°
2026-05-06 18:22 22.87502 43.25254 35966 ft 415 kts 263°
2026-05-06 18:22 22.87179 43.19001 35966 ft 415 kts 263°
2026-05-06 18:23 22.86852 43.12774 35968 ft 415 kts 263°
2026-05-06 18:23 22.86519 43.06528 35977 ft 415 kts 263°
2026-05-06 18:24 22.86185 43.00279 35987 ft 415 kts 263°
2026-05-06 18:24 22.85849 42.94031 35978 ft 415 kts 263°
2026-05-06 18:25 22.85515 42.87825 35976 ft 414 kts 263°
2026-05-06 18:25 22.85180 42.81585 35977 ft 414 kts 263°
2026-05-06 18:26 22.84842 42.75350 35983 ft 414 kts 263°
2026-05-06 18:26 22.84493 42.69115 35959 ft 414 kts 263°
2026-05-06 18:27 22.84146 42.62909 35957 ft 415 kts 263°
2026-05-06 18:27 22.83803 42.56659 35977 ft 415 kts 263°
2026-05-06 18:28 22.83459 42.50406 35988 ft 415 kts 262°
2026-05-06 18:28 22.83104 42.44155 35989 ft 415 kts 262°
2026-05-06 18:29 22.82748 42.37908 36003 ft 415 kts 262°
2026-05-06 18:29 22.82390 42.31666 36008 ft 414 kts 262°
2026-05-06 18:30 22.82031 42.25428 36012 ft 414 kts 262°
2026-05-06 18:30 22.81672 42.19236 36029 ft 414 kts 262°
2026-05-06 18:31 22.81311 42.13010 36025 ft 413 kts 262°
2026-05-06 18:31 22.80944 42.06806 35994 ft 413 kts 262°
2026-05-06 18:32 22.80571 42.00594 35986 ft 413 kts 262°
2026-05-06 18:32 22.80200 41.94380 36008 ft 413 kts 262°
2026-05-06 18:33 22.79827 41.88173 36008 ft 412 kts 262°
2026-05-06 18:33 22.79279 41.81993 36009 ft 411 kts 260°
2026-05-06 18:34 22.78631 41.75838 36027 ft 411 kts 260°
2026-05-06 18:34 22.78006 41.69686 36026 ft 410 kts 260°
2026-05-06 18:35 22.77418 41.63536 36024 ft 410 kts 260°
2026-05-06 18:35 22.76837 41.57433 36023 ft 410 kts 260°
2026-05-06 18:36 22.76245 41.51298 36044 ft 409 kts 260°
2026-05-06 18:36 22.75645 41.45166 36010 ft 409 kts 260°
2026-05-06 18:37 22.75142 41.40031 36015 ft 409 kts 260°
2026-05-06 18:37 22.74433 41.32903 36037 ft 408 kts 258°
2026-05-06 18:38 22.72789 41.27095 36032 ft 403 kts 246°
2026-05-06 18:38 22.70711 41.21450 36031 ft 403 kts 247°
2026-05-06 18:39 22.68646 41.15812 36038 ft 403 kts 246°
2026-05-06 18:40 22.65559 41.07396 36047 ft 402 kts 246°
2026-05-06 18:40 22.63497 41.01762 36031 ft 402 kts 246°
2026-05-06 18:41 22.61762 40.97045 36034 ft 402 kts 246°
2026-05-06 18:41 22.59707 40.91454 36035 ft 403 kts 246°
2026-05-06 18:42 22.57627 40.85825 36041 ft 403 kts 246°
2026-05-06 18:42 22.55543 40.80205 36047 ft 403 kts 246°
2026-05-06 18:43 22.53508 40.74664 36035 ft 388 kts 246°
2026-05-06 18:43 22.51548 40.69323 36042 ft 376 kts 246°
2026-05-06 18:44 22.49631 40.64137 36051 ft 366 kts 246°
2026-05-06 18:44 22.48670 40.61553 35918 ft 376 kts 246°
2026-05-06 18:44 22.47678 40.58892 35674 ft 386 kts 246°
2026-05-06 18:44 22.46670 40.56186 35447 ft 390 kts 246°
2026-05-06 18:45 22.45670 40.53499 35223 ft 391 kts 246°
2026-05-06 18:45 22.44653 40.50765 34991 ft 393 kts 246°
2026-05-06 18:45 22.43633 40.48020 34761 ft 394 kts 246°
2026-05-06 18:45 22.42615 40.45276 34555 ft 394 kts 246°
2026-05-06 18:46 22.41594 40.42527 34325 ft 394 kts 245°
2026-05-06 18:46 22.40570 40.39774 34101 ft 395 kts 245°
2026-05-06 18:46 22.39541 40.37017 33855 ft 396 kts 245°
2026-05-06 18:46 22.38508 40.34252 33595 ft 397 kts 245°
2026-05-06 18:47 22.37471 40.31483 33328 ft 399 kts 246°
2026-05-06 18:47 22.36426 40.28694 33072 ft 401 kts 246°
2026-05-06 18:47 22.35379 40.25897 32347 ft 403 kts 246°
2026-05-06 18:47 22.34328 40.23087 31464 ft 405 kts 246°
2026-05-06 18:48 22.33281 40.20292 30549 ft 408 kts 246°
2026-05-06 18:48 22.32212 40.17440 29511 ft 412 kts 246°
2026-05-06 18:48 22.31134 40.14560 28484 ft 414 kts 246°
2026-05-06 18:48 22.30050 40.11661 27435 ft 417 kts 246°
2026-05-06 18:49 22.28961 40.08754 26592 ft 416 kts 246°
2026-05-06 18:49 22.27884 40.05879 25952 ft 411 kts 246°
2026-05-06 18:49 22.26798 40.03038 25254 ft 408 kts 244°
2026-05-06 18:49 22.25406 40.00419 24899 ft 396 kts 235°
2026-05-06 18:50 22.23913 39.97996 24782 ft 380 kts 236°
2026-05-06 18:50 22.22489 39.95654 24651 ft 366 kts 236°
2026-05-06 18:50 22.21122 39.93394 24515 ft 353 kts 236°
2026-05-06 18:50 22.19801 39.91212 24341 ft 342 kts 236°
2026-05-06 18:51 22.18508 39.89086 24140 ft 335 kts 236°
2026-05-06 18:51 22.17226 39.86989 24068 ft 335 kts 236°
2026-05-06 18:51 22.15935 39.84883 23587 ft 339 kts 236°
2026-05-06 18:51 22.14636 39.82766 23126 ft 336 kts 236°
2026-05-06 18:52 22.13345 39.80663 22583 ft 336 kts 236°
2026-05-06 18:52 22.12081 39.78599 22116 ft 334 kts 236°
2026-05-06 18:52 22.10805 39.76516 21754 ft 330 kts 236°
2026-05-06 18:52 22.09544 39.74460 21296 ft 328 kts 236°
2026-05-06 18:53 22.08288 39.72412 20867 ft 327 kts 236°
2026-05-06 18:53 22.07039 39.70373 20452 ft 325 kts 236°
2026-05-06 18:53 22.05797 39.68346 20051 ft 323 kts 236°
2026-05-06 18:53 22.04560 39.66328 19632 ft 321 kts 236°
2026-05-06 18:54 22.03330 39.64323 19245 ft 320 kts 235°
2026-05-06 18:54 22.02104 39.62331 18869 ft 318 kts 235°
2026-05-06 18:54 22.00885 39.60351 18500 ft 317 kts 235°
2026-05-06 18:54 21.99672 39.58377 18126 ft 315 kts 235°
2026-05-06 18:55 21.98464 39.56409 17674 ft 314 kts 235°
2026-05-06 18:55 21.97255 39.54446 17237 ft 314 kts 235°
2026-05-06 18:55 21.96052 39.52493 16809 ft 313 kts 235°
2026-05-06 18:55 21.94851 39.50539 16385 ft 312 kts 235°
2026-05-06 18:56 21.93788 39.48497 15950 ft 313 kts 243°
2026-05-06 18:56 21.92851 39.46383 15541 ft 313 kts 242°
2026-05-06 18:56 21.91911 39.44267 15116 ft 313 kts 242°
2026-05-06 18:56 21.90967 39.42148 14690 ft 314 kts 242°
2026-05-06 18:57 21.90035 39.40059 14279 ft 314 kts 242°
2026-05-06 18:57 21.89090 39.37939 13841 ft 314 kts 242°
2026-05-06 18:57 21.88142 39.35818 13406 ft 314 kts 242°
2026-05-06 18:57 21.87197 39.33701 12964 ft 313 kts 242°
2026-05-06 18:58 21.86262 39.31606 12513 ft 313 kts 242°
2026-05-06 18:58 21.85320 39.29497 12058 ft 312 kts 242°
2026-05-06 18:58 21.84382 39.27393 11619 ft 311 kts 242°
2026-05-06 18:58 21.83447 39.25294 11191 ft 311 kts 242°
2026-05-06 18:59 21.82307 39.23348 10761 ft 306 kts 223°
2026-05-06 18:59 21.80488 39.22236 10342 ft 303 kts 193°
2026-05-06 18:59 21.78425 39.22247 9946 ft 304 kts 168°
2026-05-06 18:59 21.76423 39.22973 9511 ft 304 kts 158°
2026-05-06 19:00 21.74515 39.23953 9052 ft 304 kts 155°
2026-05-06 19:00 21.72625 39.24968 8616 ft 302 kts 156°
2026-05-06 19:00 21.70728 39.25927 8180 ft 300 kts 158°
2026-05-06 19:00 21.68815 39.26815 7748 ft 298 kts 159°
2026-05-06 19:01 21.66894 39.27640 7324 ft 296 kts 160°
2026-05-06 19:01 21.64972 39.28423 6902 ft 295 kts 160°
2026-05-06 19:01 21.63050 39.29185 6490 ft 293 kts 160°
2026-05-06 19:01 21.61147 39.29927 6095 ft 286 kts 161°
2026-05-06 19:02 21.59326 39.30633 5733 ft 269 kts 161°
2026-05-06 19:02 21.57602 39.31300 5281 ft 259 kts 161°
2026-05-06 19:02 21.55924 39.31951 4806 ft 252 kts 160°
2026-05-06 19:02 21.54293 39.32588 4331 ft 247 kts 160°
2026-05-06 19:03 21.52695 39.33213 3852 ft 242 kts 160°
2026-05-06 19:03 21.51120 39.33829 3382 ft 239 kts 160°
2026-05-06 19:03 21.49501 39.34134 2912 ft 237 kts 184°
2026-05-06 19:03 21.47923 39.33646 2445 ft 240 kts 212°
2026-05-06 19:04 21.46725 39.32428 2137 ft 235 kts 239°
2026-05-06 19:04 21.46074 39.30856 2114 ft 228 kts 261°
2026-05-06 19:04 21.45957 39.29194 2099 ft 221 kts 281°
2026-05-06 19:04 21.46346 39.27618 2111 ft 218 kts 298°
2026-05-06 19:05 21.47172 39.26282 2107 ft 214 kts 316°
2026-05-06 19:05 21.48335 39.25314 2108 ft 211 kts 334°
2026-05-06 19:05 21.49694 39.24726 2109 ft 210 kts 341°
2026-05-06 19:05 21.51053 39.24193 2107 ft 211 kts 341°
2026-05-06 19:06 21.52428 39.23653 2109 ft 210 kts 342°
2026-05-06 19:06 21.53793 39.23116 2106 ft 208 kts 341°
2026-05-06 19:06 21.55111 39.22597 2104 ft 195 kts 342°
2026-05-06 19:06 21.56352 39.22108 2048 ft 186 kts 341°
2026-05-06 19:07 21.57530 39.21645 1903 ft 176 kts 342°
2026-05-06 19:07 21.58650 39.21203 1676 ft 167 kts 343°
2026-05-06 19:07 21.59701 39.20789 1462 ft 152 kts 343°
2026-05-06 19:07 21.60645 39.20417 1281 ft 139 kts 342°
2026-05-06 19:08 21.61533 39.20067 1111 ft 134 kts 342°
2026-05-06 19:08 21.62400 39.19726 956 ft 133 kts 342°
2026-05-06 19:08 21.63295 39.19375 791 ft 139 kts 342°
2026-05-06 19:08 21.64199 39.19019 646 ft 135 kts 340°
2026-05-06 19:09 21.65083 39.18670 450 ft 135 kts 341°
2026-05-06 19:09 21.65967 39.18322 261 ft 136 kts 341°
2026-05-06 19:09 21.66854 39.17971 59 ft 134 kts 340°
2026-05-06 19:09 21.67628 39.17664 34 ft 94 kts 340°
2026-05-06 19:10 21.68079 39.17488 30 ft 44 kts 340°
2026-05-06 19:10 21.68279 39.17376 27 ft 29 kts 318°
2026-05-06 19:10 21.68405 39.17219 25 ft 27 kts 307°
2026-05-06 19:10 21.68377 39.17137 27 ft 18 kts 176°
2026-05-06 19:11 21.68241 39.17186 28 ft 23 kts 159°
2026-05-06 19:11 21.68082 39.17245 31 ft 26 kts 161°
2026-05-06 19:11 21.67902 39.17315 31 ft 29 kts 160°
2026-05-06 19:11 21.67704 39.17388 31 ft 32 kts 160°
2026-05-06 19:12 21.67481 39.17480 32 ft 36 kts 159°
2026-05-06 19:12 21.67289 39.17554 30 ft 15 kts 168°
2026-05-06 19:12 21.67206 39.17470 30 ft 23 kts 251°
2026-05-06 19:12 21.67117 39.17340 30 ft 16 kts 222°
2026-05-06 19:13 21.67035 39.17278 30 ft 8 kts 210°
2026-05-06 19:13 21.67022 39.17209 30 ft 12 kts 272°
2026-05-06 19:13 21.67025 39.17155 30 ft 0 kts 274°